This is the latest recevied weather packets stored in our database for station/object IZ8GMP-13. If no packets are shown the sender has not sent any weather packets the latest 10 day(s).
| Time | Temp. | Humidity | Pressure | Rain* | Wind** | Luminosity | Snow |
|---|---|---|---|---|---|---|---|
| 1788446322 | 30° C | 56% | 1014.8 hPa | - | - | - | - |
| 1788446285 | 30° C | 56% | 1014.8 hPa | - | - | - | - |
| 1788445081 | 30° C | 54% | 1015 hPa | - | - | - | - |
| 1788443877 | 30.56° C | 53% | 1015.1 hPa | - | - | - | - |
| 1788442673 | 30.56° C | 53% | 1015.2 hPa | - | - | - | - |
| 1788441469 | 30° C | 52% | 1015.3 hPa | - | - | - | - |
| 1788440265 | 30.56° C | 52% | 1015.4 hPa | - | - | - | - |
| 1788439061 | 30.56° C | 53% | 1015.5 hPa | - | - | - | - |
| 1788437858 | 30.56° C | 52% | 1015.5 hPa | - | - | - | - |
| 1788436655 | 30° C | 54% | 1015.5 hPa | - | - | - | - |
| 1788435451 | 28.89° C | 60% | 1015.5 hPa | - | - | - | - |
| 1788434248 | 28.89° C | 61% | 1015.8 hPa | - | - | - | - |
| 1788433044 | 30° C | 58% | 1015.9 hPa | - | - | - | - |
| 1788431841 | 28.89° C | 62% | 1015.9 hPa | - | - | - | - |
| 1788430637 | 29.44° C | 57% | 1016 hPa | - | - | - | - |
| 1788429434 | 29.44° C | 59% | 1016.1 hPa | - | - | - | - |
| 1788428230 | 29.44° C | 57% | 1016.3 hPa | - | - | - | - |
| 1788427027 | 28.89° C | 60% | 1016.4 hPa | - | - | - | - |
| 1788425823 | 28.89° C | 60% | 1016.3 hPa | - | - | - | - |
| 1788424620 | 28.89° C | 60% | 1016.4 hPa | - | - | - | - |
| 1788423416 | 28.89° C | 62% | 1016.3 hPa | - | - | - | - |
| 1788422213 | 27.22° C | 69% | 1016.2 hPa | - | - | - | - |
| 1788421010 | 26.67° C | 71% | 1016.2 hPa | - | - | - | - |
| 1788419806 | 27.22° C | 70% | 1016.2 hPa | - | - | - | - |
| 1788418603 | 27.22° C | 70% | 1016.2 hPa | - | - | - | - |
* Rain since midnight (hover to see other rain measurements)
** Current wind speed in m/s (hover to see current wind gust speed)